Regional Weather Roundup
Issued by NWS

Home | Current Version | Previous Version | Graphics & Text | Print | Product List | Glossary On
Versions: 1 2 3 4 5 6 7 8 9 10 11 12 13 14 15 16 17 18 19 20 21 22 23 24 25 26 27 28 29 30 31 32 33 34 35 36 37 38 39 40 41 42 43 44 45 46 47 48 49 50
000
ASUS44 KMEG 241900
RWRTN
TENNESSEE HOURLY STATE WEATHER ROUNDUP
NATIONAL WEATHER SERVICE MEMPHIS TN
200 PM CDT MON APR 24 2017

TNZ002-004-019-021-049-052-054-088>092-242000-
WEST TENNESSEE

CITY           SKY/WX    TMP DP  RH WIND       PRES   REMARKS
MEMPHIS INTL   MOSUNNY   73  54  51 N6        29.85F
NWS MEMPHIS      N/A     72 N/A N/A MISG        N/A
JACKSON        PTSUNNY   68  56  65 N6        29.86F
DYERSBURG      SUNNY     70  53  54 MISG      29.85F
PARIS          SUNNY     66  52  59 N7        29.85S
$$

TNZ008-025-027-028-033-062-065-066-242000-
NORTH MIDDLE TENNESSEE

CITY           SKY/WX    TMP DP  RH WIND       PRES   REMARKS
NASHVILLE      CLOUDY    64  54  69 NW7       29.84S
CLARKSVILLE    CLOUDY    68  51  54 E5        29.83F
SMYRNA         CLOUDY    65  55  70 N8        29.84F
CROSSVILLE     CLOUDY    62  53  72 CALM      29.81F
$$

TNZ061-075-076-078-094-096-097-242000-
SOUTH MIDDLE TENNESSEE

CITY           SKY/WX    TMP DP  RH WIND       PRES   REMARKS
TULLAHOMA      CLOUDY    57  54  88 NW8       29.84S
WINCHESTER     CLOUDY    59  55  88 NW7       29.83S
COLUMBIA       CLOUDY    61  61 100 N6        29.83S
SHELBYVILLE    CLOUDY    61  57  88 NW6       29.85S
$$

TNZ017-018-042-046-047-242000-
NORTHEAST TENNESSEE

CITY           SKY/WX    TMP DP  RH WIND       PRES   REMARKS
TRI CITIES     CLOUDY    62  53  72 NE6       29.80F
$$

TNZ012-013-036-069-073-074-242000-
CENTRAL EAST TENNESSEE

CITY           SKY/WX    TMP DP  RH WIND       PRES   REMARKS
KNOXVILLE      PTSUNNY   67  53  61 NE12      29.76F
OAK RIDGE      SUNNY     69  54  58 E9        29.78F
GATLINBURG     PTSUNNY   64  52  63 NW5       29.76F
$$

TNZ083-085-099-242000-
SOUTHEAST TENNESSEE

CITY           SKY/WX    TMP DP  RH WIND       PRES   REMARKS
CHATTANOOGA    PTSUNNY   70  56  61 VRB3      29.77F
$$

SKY/WX REPORTED AS FAIR MEANS FEW OR NO CLOUDS BELOW
12 THOUSAND FEET.




USA.gov is the U.S. government's official web portal to all federal, state and local government web resources and services.